TimeAKST,TemperatureF,Dew PointF,Humidity,Sea Level PressureIn,VisibilityMPH,Wind Direction,Wind SpeedMPH,Gust SpeedMPH,PrecipitationIn,Events,Conditions,WindDirDegrees,DateUTC
12:56 AM,-31.0,-9999,N/A,29.93,5.0,Calm,Calm,-,N/A,,Haze,0,2012-12-05 09:56:00
1:56 AM,-27.9,-36.0,65,29.93,9.0,Calm,Calm,-,0.00,,Scattered Clouds,0,2012-12-05 10:56:00
2:56 AM,-27.0,-34.1,69,29.93,10.0,Calm,Calm,-,N/A,,Scattered Clouds,0,2012-12-05 11:56:00
3:56 AM,-27.0,-34.1,69,29.93,10.0,Calm,Calm,-,N/A,,Scattered Clouds,0,2012-12-05 12:56:00
5:56 AM,-24.0,-29.9,74,29.93,5.0,Calm,Calm,-,0.00,,Haze,0,2012-12-05 14:56:00
6:30 AM,-23.8,-29.2,76,29.85,4.0,Calm,Calm,-,N/A,Snow,Light Snow,0,2012-12-05 15:30:00
6:55 AM,-22.0,-29.2,69,29.93,4.0,Calm,Calm,-,N/A,Snow,Light Snow,0,2012-12-05 15:55:00
7:55 AM,-22.0,-29.2,69,29.93,6.0,Calm,Calm,-,N/A,Snow,Light Snow,0,2012-12-05 16:55:00
8:55 AM,-23.8,-31.0,69,29.94,6.0,Calm,Calm,-,N/A,Snow,Light Snow,0,2012-12-05 17:55:00
9:45 AM,-27.4,-32.8,75,29.87,7.0,Calm,Calm,-,N/A,,Scattered Clouds,0,2012-12-05 18:45:00
9:55 AM,-27.4,-34.6,69,29.94,7.0,East,2.3,-,N/A,,Scattered Clouds,90,2012-12-05 18:55:00
10:55 AM,-27.4,-34.6,69,29.94,7.0,Calm,Calm,-,N/A,,Scattered Clouds,0,2012-12-05 19:55:00
11:55 AM,-29.2,-34.6,75,29.95,7.0,Calm,Calm,-,N/A,,Mostly Cloudy,0,2012-12-05 20:55:00
12:55 PM,-27.4,-34.6,69,29.96,7.0,Calm,Calm,-,N/A,,Mostly Cloudy,0,2012-12-05 21:55:00
1:55 PM,-23.8,-31.0,69,29.96,7.0,Variable,2.3,-,N/A,,Mostly Cloudy,0,2012-12-05 22:55:00
2:55 PM,-25.6,-32.8,69,29.96,7.0,NNE,3.5,-,N/A,,Scattered Clouds,30,2012-12-05 23:55:00
3:55 PM,-25.6,-32.8,69,29.96,7.0,Calm,Calm,-,N/A,,Scattered Clouds,0,2012-12-06 00:55:00
4:55 PM,-25.6,-32.8,69,29.97,7.0,Calm,Calm,-,N/A,,Mostly Cloudy,0,2012-12-06 01:55:00
5:55 PM,-25.6,-31.0,76,29.96,7.0,SE,3.5,-,N/A,,Mostly Cloudy,130,2012-12-06 02:55:00
6:55 PM,-25.6,-31.0,76,29.96,7.0,Calm,Calm,-,N/A,,Mostly Cloudy,0,2012-12-06 03:55:00
7:55 PM,-23.8,-31.0,69,29.97,7.0,Calm,Calm,-,N/A,,Scattered Clouds,0,2012-12-06 04:55:00
8:55 PM,-23.8,-29.2,76,29.97,7.0,Calm,Calm,-,N/A,,Mostly Cloudy,0,2012-12-06 05:55:00
9:03 PM,-23.8,-29.2,76,29.91,6.0,Calm,Calm,-,N/A,Snow,Light Snow,0,2012-12-06 06:03:00
9:55 PM,-20.2,-27.4,69,29.97,5.0,Calm,Calm,-,N/A,Snow,Light Snow,0,2012-12-06 06:55:00
10:56 PM,-20.0,-27.0,70,29.98,10.0,Calm,Calm,-,N/A,,Partly Cloudy,0,2012-12-06 07:56:00
11:56 PM,-18.9,-25.1,74,29.98,10.0,Calm,Calm,-,N/A,,Clear,0,2012-12-06 08:56:00